Palestine, TX

2:08 PM CST on January 19, 2018 (GMT -0600)
Palestine Municipal

Weather History for KPSN - October, 2012

Change the Weather History Date:

Monday, October 29, 2012

  Actual Average (KTYR) Record (KTYR)
Temperature  
Mean Temperature 50 °F -  
Max Temperature 67 °F 70 °F 88 °F (1915)
Min Temperature 32 °F 52 °F 24 °F (1910)
Degree Days  
Heating Degree Days 16    
Moisture  
Dew Point 34 °F    
Average Humidity 64    
Maximum Humidity 96    
Minimum Humidity 27    
Precipitation  
Precipitation 0.00 in - - ()
Sea Level Pressure  
Sea Level Pressure 30.25 in    
Wind  
Wind Speed 0 mph (SW)    
Max Wind Speed 5 mph    
Max Gust Speed -    
Visibility 9 miles    
Events      
Averages and records for this station are not official NWS values.
T = Trace of Precipitation, MM = Missing Value Source: NWS Daily Summary

Daily Weather History Graph

Daily Weather History Graph

Search for Another Location

Airport or City:

Trip Planner

Search our weather history database for the weather conditions in past years. The results will help you decide how hot, cold, wet, or windy it might be!

Date:

Astronomy

Oct. 29, 2012 Rise Set
Actual Time 7:37 AM CDT 6:35 PM CDT
Civil Twilight 7:12 AM CDT 7:00 PM CDT
Nautical Twilight 6:43 AM CDT 7:29 PM CDT
Astronomical Twilight 6:14 AM CDT 7:57 PM CDT
Moon 6:30 PM CDT (10/29) 7:26 AM CDT (10/29)
Length of Visible Light 11h 48m
Length of Day
10h 58m
Full, 100% of the Moon is Illuminated
Oct 29
Full
Oct 29
Full
Nov 6
Last Quarter
Nov 13
New
Nov 20
First Quarter

Hourly Weather History & Observations

Time (CDT) Temp. Dew Point Humidity Pressure Visibility Wind Dir Wind Speed Gust Speed Precip Events Conditions
12:15 AM 41.0 °F 33.6 °F 75% 30.25 in 7.0 mi Calm Calm - N/A   Clear
12:35 AM 39.9 °F 34.3 °F 80% 30.25 in 7.0 mi Calm Calm - N/A   Clear
12:55 AM 37.9 °F 33.4 °F 84% 30.26 in 10.0 mi Calm Calm - N/A   Clear
1:15 AM 36.1 °F 33.1 °F 89% 30.26 in 10.0 mi Calm Calm - N/A   Clear
1:35 AM 37.8 °F 33.6 °F 85% 30.26 in 10.0 mi Calm Calm - N/A   Clear
1:55 AM 36.5 °F 32.7 °F 86% 30.27 in 10.0 mi Calm Calm - N/A   Clear
2:15 AM 37.6 °F 33.4 °F 85% 30.27 in 5.0 mi Calm Calm - N/A   Haze
2:35 AM 36.5 °F 33.6 °F 89% 30.26 in 7.0 mi Calm Calm - N/A   Clear
2:55 AM 37.0 °F 34.7 °F 91% 30.27 in 10.0 mi Calm Calm - N/A   Clear
3:15 AM 37.2 °F 33.4 °F 86% 30.27 in 10.0 mi Calm Calm - N/A   Clear
3:35 AM 36.3 °F 32.2 °F 85% 30.27 in 10.0 mi Calm Calm - N/A   Clear
3:55 AM 35.2 °F 32.0 °F 88% 30.27 in 10.0 mi Calm Calm - N/A   Clear
4:15 AM 34.7 °F 32.2 °F 91% 30.27 in 10.0 mi Calm Calm - N/A   Clear
4:35 AM 34.9 °F 32.4 °F 91% 30.27 in 10.0 mi Calm Calm - N/A   Clear
4:55 AM 33.4 °F 31.5 °F 92% 30.28 in 10.0 mi Calm Calm - N/A   Clear
5:15 AM 33.8 °F 32.0 °F 93% 30.28 in 7.0 mi Calm Calm - N/A   Clear
5:35 AM 33.8 °F 32.0 °F 93% 30.28 in 3.0 mi Calm Calm - N/A   Clear
5:55 AM 34.5 °F 32.2 °F 91% 30.28 in 3.0 mi Calm Calm - N/A   Clear
6:15 AM 33.8 °F 32.0 °F 93% 30.28 in 3.0 mi Calm Calm - N/A   Clear
6:55 AM 32.9 °F 31.8 °F 96% 30.28 in 10.0 mi Calm Calm - N/A   Clear
7:15 AM 32.4 °F 31.3 °F 96% 30.29 in 10.0 mi Calm Calm - N/A   Clear
7:35 AM 32.9 °F 31.8 °F 96% 30.29 in 10.0 mi Calm Calm - N/A   Clear
7:55 AM 33.3 °F 32.0 °F 95% 30.29 in 10.0 mi Calm Calm - N/A   Clear
8:15 AM 34.3 °F 32.2 °F 92% 30.30 in 10.0 mi Calm Calm - N/A   Clear
8:35 AM 36.7 °F 34.2 °F 91% 30.31 in 10.0 mi Calm Calm - N/A   Clear
8:55 AM 41.5 °F 38.5 °F 89% 30.31 in 10.0 mi Calm Calm - N/A   Clear
9:15 AM 46.8 °F 39.4 °F 75% 30.32 in 10.0 mi Calm Calm - N/A   Clear
9:35 AM 50.2 °F 39.2 °F 66% 30.32 in 10.0 mi Calm Calm - N/A   Clear
9:55 AM 53.2 °F 39.7 °F 60% 30.32 in 10.0 mi Calm Calm - N/A   Clear
10:15 AM 55.9 °F 33.1 °F 42% 30.32 in 10.0 mi Calm Calm - N/A   Clear
10:35 AM 57.6 °F 32.4 °F 39% 30.32 in 10.0 mi Calm Calm - N/A   Clear
10:55 AM 58.6 °F 33.3 °F 38% 30.32 in 10.0 mi Calm Calm - N/A   Clear
11:15 AM 59.7 °F 31.6 °F 35% 30.32 in 10.0 mi Calm Calm - N/A   Clear
11:35 AM 60.6 °F 30.9 °F 33% 30.32 in 10.0 mi Calm Calm - N/A   Clear
11:55 AM 61.0 °F 31.1 °F 32% 30.31 in 10.0 mi Calm Calm - N/A   Clear
12:55 PM 63.3 °F 31.5 °F 30% 30.28 in 10.0 mi Calm Calm - N/A   Clear
1:15 PM 63.7 °F 31.5 °F 30% 30.28 in 10.0 mi Calm Calm - N/A   Clear
1:35 PM 64.2 °F 31.6 °F 30% 30.26 in 10.0 mi Calm Calm - N/A   Clear
1:55 PM 64.4 °F 31.1 °F 29% 30.25 in 10.0 mi NW 3.5 mph - N/A   Clear
2:15 PM 65.5 °F 31.6 °F 28% 30.24 in 10.0 mi SW 3.5 mph - N/A   Clear
2:35 PM 66.2 °F 31.1 °F 27% 30.23 in 10.0 mi Calm Calm - N/A   Clear
2:55 PM 66.2 °F 32.2 °F 28% 30.22 in 10.0 mi SSW 4.6 mph - N/A   Clear
3:15 PM 66.0 °F 32.0 °F 28% 30.21 in 10.0 mi Calm Calm - N/A   Clear
3:35 PM 67.3 °F 32.5 °F 28% 30.20 in 10.0 mi Calm Calm - N/A   Clear
3:55 PM 66.6 °F 32.4 °F 28% 30.20 in 10.0 mi SW 3.5 mph - N/A   Clear
4:15 PM 66.6 °F 32.5 °F 28% 30.19 in 10.0 mi Calm Calm - N/A   Clear
4:35 PM 66.6 °F 33.1 °F 29% 30.18 in 10.0 mi Calm Calm - N/A   Clear
5:15 PM 66.0 °F 32.7 °F 29% 30.18 in 10.0 mi Calm Calm - N/A   Clear
5:35 PM 65.7 °F 33.3 °F 30% 30.17 in 10.0 mi East 3.5 mph - N/A   Clear
5:55 PM 64.6 °F 34.9 °F 33% 30.17 in 10.0 mi Calm Calm - N/A   Clear
6:15 PM 63.0 °F 35.1 °F 35% 30.17 in 10.0 mi Calm Calm - N/A   Clear
6:35 PM 59.4 °F 40.1 °F 49% 30.18 in 10.0 mi Calm Calm - N/A   Clear
6:55 PM 55.2 °F 42.1 °F 61% 30.18 in 10.0 mi Calm Calm - N/A   Clear
7:15 PM 53.6 °F 42.1 °F 65% 30.18 in 10.0 mi Calm Calm - N/A   Clear
7:35 PM 50.9 °F 41.2 °F 69% 30.18 in 10.0 mi Calm Calm - N/A   Clear
7:55 PM 49.5 °F 41.0 °F 73% 30.18 in 10.0 mi Calm Calm - N/A   Clear
10:55 PM 49.5 °F 36.7 °F 61% 30.18 in 10.0 mi Calm Calm - N/A   Clear
11:15 PM 45.9 °F 37.0 °F 71% 30.18 in 10.0 mi Calm Calm - N/A   Clear
11:35 PM 43.7 °F 37.0 °F 77% 30.18 in 10.0 mi Calm Calm - N/A   Clear
11:55 PM 44.6 °F 37.4 °F 76% 30.17 in 10.0 mi Calm Calm - N/A   Clear